www.pogodaiklimat.ru

Погода и климат >> Архив погоды >> Норвегия >> Остров Белый


ПОГОДА на Острове Белый

  • Прогноз погоды на Острове Белый
  • Монитор погоды на Острове Белый

АРХИВ ПОГОДЫ на Острове Белый

Время (UTC), дата Ветер
(напр.,м/с)
 
Видим.   Явления Облачность Т
(С)
Тd
(С)
f
(%)
Тe
(С)
Тes
(С)
Комфортность P
(гПа)
Po
(гПа)
Тmin
(С)
Tmax
(С)
R
(мм)
R24
(мм)
S
(см)
07 19.06 С 10
{13}
н/о н/о -0.3 -1.4 92 -9 -9 1004.3 1003.2
08 19.06
{15}
н/о н/о -0.1 -1.0 94 1004.3 1003.2
09 19.06 С 11
{13}
н/о н/о 0.0 -1.0 93 -9 -9 1004.7 1003.6
10 19.06 С 11
{13}
н/о н/о 0.0 -1.4 90 -9 -9 1005.2 1004.1
11 19.06 С 11
{13}
н/о н/о -0.2 -1.5 91 -9 -9 1005.1 1004.0
12 19.06 С 13
{15}
н/о н/о -0.2 -1.1 94 -10 -10 1004.9 1003.9
13 19.06 С 13
{16}
н/о н/о -0.2 -0.7 96 -10 -10 1005.0 1004.0
14 19.06 С 12
{15}
н/о н/о -0.1 -0.6 96 -9 -9 1005.3 1004.3
15 19.06
{15}
н/о н/о 0.0 -0.4 97 1006.0 1004.9
16 19.06
{14}
н/о н/о 0.0 -0.5 96 1006.5 1005.4
17 19.06
{12}
н/о н/о 0.0 -0.4 97 1007.1 1006.0
18 19.06 С 8
{16}
н/о н/о 0.0 -0.2 99 -8 -8 1007.5 1006.5 -0.6 +0.1
19 19.06 С 9
{10}
н/о н/о -0.1 -0.3 99 -8 -8 1007.6 1006.5
20 19.06 С 8
{10}
н/о н/о -0.1 -0.3 99 -8 -8 1008.2 1007.1
21 19.06 С 7
{10}
н/о н/о 0.0 -0.2 99 -7 -7 1008.7 1007.6
22 19.06
{9}
н/о н/о -0.1 -0.2 99 1009.0 1007.9
23 19.06
{9}
н/о н/о -0.2 -0.3 99 1009.3 1008.2
00 20.06 С 8
{10}
н/о н/о -0.2 -0.3 99 -8 -8 1009.3 1008.3
01 20.06
{9}
н/о н/о -0.2 -0.3 99 1009.6 1008.6
02 20.06 С 9
{10}
н/о н/о -0.2 -0.3 99 -8 -8 1009.9 1008.8
03 20.06 С 8
{10}
н/о н/о -0.1 -0.2 99 -8 -8 1010.3 1009.2
04 20.06
{9}
н/о н/о -0.1 -0.3 99 1010.8 1009.7
05 20.06
{9}
н/о н/о 0.0 -0.4 97 1010.7 1009.7
06 20.06 С 6
{10}
н/о н/о -0.4 -0.6 99 -7 -7 1011.4 1010.3 -0.4 +0.1
07 20.06 С 6
{7}
н/о н/о -0.6 -0.8 99 -8 -8 1011.8 1010.7
08 20.06 С 7
{8}
н/о н/о -0.5 -0.9 97 -8 -8 1012.2 1011.1
09 20.06 С 4
{7}
н/о н/о -0.2 -0.9 95 -6 -6 1012.6 1011.6
10 20.06
{8}
н/о н/о -0.3 -1.0 95 1012.7 1011.6
12 20.06 н/о н/о -0.5 -1.1 96 1013.4 1012.4
13 20.06 С 6
{8}
н/о н/о -0.4 -1.0 96 -7 -7 1013.8 1012.7
14 20.06 С 8
{9}
н/о н/о -0.7 -1.2 96 -9 -9 1013.9 1012.8
15 20.06 С 7
{9}
н/о н/о -0.8 -1.3 96 -8 -8 1014.0 1012.9
16 20.06 С 8
{9}
н/о н/о -1.2 -1.7 96 -9 -9 1013.7 1012.6
17 20.06 С 7
{8}
н/о н/о -1.5 -2.0 96 -9 -9 1014.2 1013.1
18 20.06 С 6
{9}
н/о н/о -1.6 -2.1 96 -9 -9 1014.3 1013.2
19 20.06 С 8
{9}
н/о н/о -1.9 -2.4 96 -10 -10 1014.1 1013.0
20 20.06 С 6
{9}
н/о н/о -1.9 -2.4 96 -9 -9 1014.4 1013.3
21 20.06 С 7
{8}
н/о н/о -2.1 -2.6 96 -10 -10 1014.4 1013.3
23 20.06 С 4
{5}
н/о н/о -1.0 -2.0 93 -7 -7 1014.6 1013.5
00 21.06 СЗ 1 н/о н/о -0.9 -2.0 92 -3 -3 1014.7 1013.6
01 21.06 З 2
{3}
н/о н/о -1.2 -2.3 92 -5 -5 1014.9 1013.8
02 21.06 штиль 0
{1}
н/о н/о -0.4 -1.9 90 -2 -2 1014.6 1013.5
04 21.06 С 4
{4}
н/о н/о -0.1 -1.5 90 -6 -6 1014.3 1013.2
05 21.06 С 4
{4}
н/о н/о +0.2 -1.5 88 -5 -5 1014.1 1013.1
06 21.06 С 4 н/о н/о +0.4 -1.3 88 -5 -5 1013.9 1012.9
07 21.06 С 4
{5}
н/о н/о +1.4 -0.5 87 -4 -4 1013.8 1012.8
08 21.06 С 4
{5}
н/о н/о +1.9 0.0 87 -3 -3 1013.7 1012.6
09 21.06 С 4
{6}
н/о н/о +1.8 0.0 88 -3 -3 1013.8 1012.7
10 21.06 С 5
{5}
н/о н/о +1.5 -0.1 89 -4 -4 1013.9 1012.9
11 21.06 С 6
{7}
н/о н/о +0.9 -0.4 91 -6 -6 1013.9 1012.8
12 21.06 С 6
{7}
н/о н/о +0.1 -0.7 94 -7 -7 1013.9 1012.9
13 21.06 С 7
{8}
н/о н/о +1.0 -0.3 91 -6 -6 1013.7 1012.7
14 21.06 С 6
{9}
н/о н/о +1.1 -0.3 90 -5 -5 1013.5 1012.4
15 21.06 С 5
{7}
н/о н/о +0.7 -0.3 93 -5 -5 1013.5 1012.4
16 21.06 С 5
{6}
н/о н/о +0.3 -0.5 94 -6 -6 1013.4 1012.3
17 21.06 С 5
{6}
н/о н/о -0.7 -1.2 96 -7 -7 1013.1 1012.1
18 21.06 С 5
{9}
н/о н/о -1.6 -2.0 97 -8 -8 1013.1 1012.0 -1.6 +2.5
19 21.06 С 4
{5}
н/о н/о -0.4 -0.8 97 -6 -6 1013.1 1012.0
20 21.06 С 3
{5}
н/о н/о +0.8 +0.4 97 -4 -4 1012.9 1011.8
22 21.06
{5}
н/о н/о +2.1 +0.9 92 1013.0 1012.0
23 21.06 С 4
{5}
н/о н/о +2.1 +0.8 91 -3 -3 1013.0 1011.9
00 22.06 С 4 н/о н/о +2.0 +1.0 93 -3 -3 1012.9 1011.8
01 22.06 СВ 5
{6}
н/о н/о +3.0 +1.8 92 -2 -2 1012.9 1011.8
02 22.06 С 4
{6}
н/о н/о +2.1 +1.4 95 -3 -3 1012.9 1011.8
03 22.06 С 2
{6}
н/о н/о +0.8 0.0 94 -3 -3 1012.8 1011.7
04 22.06 С 3
{4}
н/о н/о +0.8 0.0 94 -4 -4 1012.8 1011.7
05 22.06 С 2
{3}
н/о н/о +1.5 +0.4 92 -2 -2 1012.9 1011.8
06 22.06 СВ 2
{6}
н/о н/о +2.5 +1.0 90 -1 -1 1012.8 1011.7
07 22.06 штиль 0
{2}
н/о н/о +4.7 +1.0 77 +4 +4 1012.9 1011.8
08 22.06 СЗ 1
{1}
н/о н/о +3.3 +0.4 81 +2 +2 1013.2 1012.1
09 22.06 С 1
{1}
н/о н/о +3.1 +0.3 82 +2 +2 1013.3 1012.3
10 22.06 штиль 0
{1}
н/о н/о +3.0 +0.4 83 +2 +2 1013.6 1012.6
11 22.06 штиль 0
{1}
н/о н/о +3.1 +1.5 89 +2 +2 1013.9 1012.8
12 22.06
{2}
н/о н/о +2.7 +1.5 92 1014.4 1013.3
13 22.06 С 1
{3}
н/о н/о +2.2 +1.0 92 0 0 1014.6 1013.6
14 22.06 С 2
{3}
н/о н/о +2.6 +1.1 90 -1 -1 1014.8 1013.7
15 22.06
{2}
н/о н/о +2.4 +1.2 92 1014.9 1013.8
16 22.06 С 2
{2}
н/о н/о +1.9 +1.3 96 -2 -2 1015.0 1013.9
17 22.06 С 3
{4}
н/о н/о +1.7 +1.3 97 -3 -3 1015.0 1014.0
18 22.06
{4}
н/о н/о +1.2 +0.8 97 1015.2 1014.1 +1.2 +4.7
19 22.06
{3}
н/о н/о +1.2 +0.8 97 1015.3 1014.2
20 22.06 С 5
{5}
н/о н/о +1.3 +0.9 97 -5 -5 1015.3 1014.2
21 22.06 С 5
{6}
н/о н/о +1.2 +0.5 95 -5 -5 1015.3 1014.3
23 22.06
{6}
н/о н/о +0.5 +0.2 98 1015.6 1014.5
00 23.06 С 6 н/о н/о +1.0 +0.7 98 -6 -6 1015.6 1014.5
01 23.06 С 6
{8}
н/о н/о +1.5 +0.8 95 -5 -5 1015.7 1014.6
02 23.06 С 4
{7}
н/о н/о +1.3 +0.3 93 -4 -4 1015.7 1014.6
03 23.06
{4}
н/о н/о +1.2 +0.5 95 1015.8 1014.7
04 23.06 С 3
{4}
н/о н/о +1.3 +0.7 96 -3 -3 1015.8 1014.8
05 23.06 С 3
{4}
н/о н/о +1.5 +0.9 96 -3 -3 1015.7 1014.7
06 23.06
{8}
н/о н/о +1.5 +0.6 94 1015.8 1014.7
07 23.06
{5}
н/о н/о +2.0 +0.4 89 1015.8 1014.7
08 23.06 С 5
{5}
н/о н/о +1.6 0.0 89 -4 -4 1016.2 1015.1
09 23.06 С 4
{5}
н/о н/о +1.7 +0.2 90 -3 -3 1016.4 1015.4
10 23.06
{4}
н/о н/о +1.5 +0.2 91 1016.6 1015.5
11 23.06
{4}
н/о н/о +1.1 +0.1 93 1016.7 1015.6
12 23.06 С 4
{5}
н/о н/о +0.9 +0.3 96 -5 -5 1016.8 1015.7
13 23.06 С 3
{5}
н/о н/о +0.7 +0.3 97 -4 -4 1016.8 1015.8
14 23.06 С 5
{6}
н/о н/о +0.5 +0.2 98 -6 -6 1016.7 1015.6
15 23.06 С 7
{8}
н/о н/о +0.3 0.0 98 -7 -7 1016.6 1015.5
16 23.06
{10}
н/о н/о +0.3 0.0 98 1016.4 1015.3
17 23.06 С 10
{11}
н/о н/о +0.4 +0.1 98 -8 -8 1016.4 1015.3
18 23.06 С 9
{11}
н/о н/о +0.2 -0.1 98 -8 -8 1016.4 1015.3 +0.2 +2.2
19 23.06 С 11
{12}
н/о н/о +0.4 -0.4 94 -8 -8 1016.3 1015.2
20 23.06
{13}
н/о н/о 0.0 -0.4 97 1016.7 1015.6
21 23.06 С 10
{13}
н/о н/о +0.9 -0.2 92 -7 -7 1016.3 1015.2
22 23.06 С 12
{13}
н/о н/о +0.3 -0.5 94 -9 -9 1016.1 1015.1
23 23.06 С 10
{13}
н/о н/о +0.1 -0.7 94 -8 -8 1016.4 1015.3
00 24.06 С 10
{13}
н/о н/о -0.2 -0.9 95 -9 -9 1016.2 1015.1
01 24.06 С 9
{11}
н/о н/о -0.3 -1.0 95 -8 -8 1016.2 1015.1
02 24.06 С 8
{11}
н/о н/о -0.4 -1.1 95 -8 -8 1016.4 1015.3
03 24.06 С 7
{9}
н/о н/о -0.8 -1.7 94 -8 -8 1016.1 1015.0
04 24.06 С 7
{9}
н/о н/о -1.0 -1.7 95 -9 -9 1015.8 1014.7
05 24.06 С 7
{9}
н/о н/о -1.2 -2.1 94 -9 -9 1015.5 1014.4
06 24.06 С 8
{11}
н/о н/о -1.2 -1.8 96 -9 -9 1015.2 1014.1 -1.5 +0.9
07 24.06
{9}
н/о н/о -1.2 -1.7 96 1015.1 1014.0
08 24.06
{10}
н/о н/о -1.1 -1.8 95 1014.8 1013.7
09 24.06 С 7
{8}
н/о н/о -1.1 -2.0 94 -9 -9 1014.8 1013.7
10 24.06 С 7
{7}
н/о н/о -0.8 -2.1 91 -8 -8 1014.9 1013.8
11 24.06 С 6
{7}
н/о н/о -0.8 -1.9 92 -8 -8 1014.7 1013.6
12 24.06 С 7
{10}
н/о н/о -0.5 -1.8 91 -8 -8 1014.5 1013.4
13 24.06 С 6
{8}
н/о н/о -0.5 -1.6 92 -7 -7 1014.4 1013.3
14 24.06 С 6
{7}
н/о н/о -0.4 -1.5 92 -7 -7 1014.2 1013.1
16 24.06 С 7
{8}
н/о н/о -0.4 -1.7 91 -8 -8 1013.4 1012.3
17 24.06 С 6
{8}
н/о н/о -0.6 -1.6 93 -8 -8 1013.1 1012.1
18 24.06 н/о н/о -0.6 -1.6 93 1012.7 1011.6
19 24.06
{8}
н/о н/о -0.7 -1.6 94 1012.4 1011.3
20 24.06 С 7
{9}
н/о н/о -0.9 -1.4 96 -8 -8 1012.2 1011.1
21 24.06 С 7
{8}
н/о н/о -0.9 -1.3 97 -8 -8 1012.0 1010.9
22 24.06 С 6
{7}
н/о н/о -0.7 -1.2 96 -8 -8 1011.5 1010.4
23 24.06 С 6
{7}
н/о н/о -1.0 -1.4 97 -8 -8 1011.1 1010.1
00 25.06 С 5
{9}
н/о н/о -1.6 -1.8 99 -8 -8 1010.9 1009.8
01 25.06 С 5
{7}
н/о н/о -1.7 -1.8 99 -8 -8 1010.7 1009.6
02 25.06 С 5
{6}
н/о н/о -1.4 -1.6 99 -8 -8 1010.3 1009.2
03 25.06 С 5
{6}
н/о н/о -1.6 -2.0 97 -8 -8 1010.1 1009.0
04 25.06 С 6
{6}
н/о н/о -1.7 -2.2 96 -9 -9 1009.5 1008.4
05 25.06
{8}
н/о н/о -1.6 -2.1 96 1009.0 1008.0
06 25.06
{8}
н/о н/о -1.4 -1.9 96 1008.7 1007.7 -2.0 -0.5
07 25.06 С 5
{7}
н/о н/о -1.3 -1.8 96 -8 -8 1008.4 1007.4
08 25.06
{7}
н/о н/о -1.2 -1.7 96 1008.4 1007.3
09 25.06 С 6
{8}
н/о н/о -1.2 -1.7 96 -8 -8 1008.1 1007.0
10 25.06
{8}
н/о н/о -0.8 -1.4 96 1007.9 1006.8
11 25.06 С 5
{7}
н/о н/о -0.3 -0.7 97 -7 -7 1007.5 1006.5
12 25.06 С 6
{8}
н/о н/о -0.4 -0.9 96 -7 -7 1007.4 1006.3
13 25.06 С 7
{9}
н/о н/о 0.0 -0.4 97 -7 -7 1006.8 1005.8
14 25.06
{9}
н/о н/о 0.0 -0.4 97 1006.5 1005.4
15 25.06 С 9
{10}
н/о н/о +0.1 -0.3 97 -8 -8 1006.1 1005.0
16 25.06 С 8
{10}
н/о н/о 0.0 -0.2 99 -8 -8 1005.7 1004.7
17 25.06
{9}
н/о н/о 0.0 -0.1 99 1005.1 1004.0
18 25.06 С 10
{11}
н/о н/о 0.0 -0.1 99 -8 -8 1004.5 1003.4 -1.6 +0.2
19 25.06
{10}
н/о н/о -0.1 -0.2 99 1004.0 1003.0
20 25.06
{11}
н/о н/о -0.1 -0.1 100 1003.7 1002.6
21 25.06
{10}
н/о н/о -0.1 -0.1 100 1003.2 1002.1
22 25.06 С 9
{11}
н/о н/о 0.0 0.0 100 -8 -8 1002.3 1001.3
23 25.06 С 7
{11}
н/о н/о -0.1 -0.1 100 -8 -8 1002.2 1001.1
00 26.06 С 10
{11}
н/о н/о +0.1 0.0 99 -8 -8 1001.4 1000.4
01 26.06 С 12
{14}
н/о н/о +0.2 +0.1 99 -9 -9 1000.7 999.6
02 26.06 С 12
{16}
н/о н/о +0.2 -0.1 98 -9 -9 1000.3 999.3
03 26.06 С 11
{14}
н/о н/о 0.0 -0.2 99 -9 -9 999.9 998.9
04 26.06 С 9
{12}
н/о н/о -0.1 -0.2 99 -8 -8 999.8 998.7
05 26.06 С 10
{12}
н/о н/о 0.0 -0.1 99 -8 -8 999.1 998.1
06 26.06 С 9
{16}
н/о н/о 0.0 -0.1 99 -8 -8 998.6 997.5 -0.1 +0.3
07 26.06 С 7
{9}
н/о н/о 0.0 -0.1 99 -7 -7 998.2 997.2

 

Местоположение метеостанции Остров Белый (Норвегия): широта 80.07 долгота 31.50 высота над уровнем моря 10 м.

В архиве по умолчанию представлена погода на Острове Белый за последнюю неделю. Архивные данные за месяц целиком и за предыдущие месяцы, начиная с января 2011 года, Вы можете получить, выбрав интересующий диапазон дат из раскрывающегося списка и нажав кнопку "Ввод!".


*Определитесь, кто Вы:
робот инопланетянин человек

Внимание! Время в таблицах - всемирное. Для получения местного времени необходимо прибавить поправку, которая равна 1 ч.

Смотрите также архив погоды в соседних городах и на ближайших метеорологических станциях:

Погода на Острове Карла XII (Норвегия) (137 км)
Погода на Конгсёйа (Норвегия) (137 км)
Погода на Эдже (Норвегия) (271 км)
Погода на Верлегенхукен (Норвегия) (292 км)
Погода в Пирамиде (Норвегия) (347 км)
Погода в Свальбард аэропорту (Норвегия) (389 км)
Погода в Ню-Олесунн (Норвегия) (415 км)
Погода в Хопене (Норвегия) (422 км)
Погода в Баренцбурге (Шпицберген, Россия) (424 км)
Погода на Акселойа (Норвегия) (444 км)

Пояснения к столбцам:

Ветер - указаны скорость ветра в м/с - средняя за 10 мин, порывы в срок и между сроками (в фигурных скобках) и направление, откуда дует ветер: С - северный, СВ - северо-восточный, В - восточный, ЮВ - юго-восточный, Ю - южный, ЮЗ - юго-западный, З - западный, СЗ - северо-западный.
Видимость - горизонтальная дальность видимости в метрах или километрах. При видимости от 1 до 10 км при отсутствии осадков обычно наблюдается дымка, при ухудшении видимости до 1 км и менее - туман. В сухую погоду видимость может ухудшаться дымом, пылью или мглою.
Явления - указаны атмосферные явления, наблюдавшиеся в срок или в последний час перед сроком; фигурными скобками обозначены явления, наблюдавшиеся между сроками (за 1-3 часа до срока); квадратными скобками обозначены град или гололедные отложения с указанием их диаметра в мм.
Облачность - указаны через наклонную черту общая и нижняя облачность в баллах и высота нижней границы облаков в метрах; квадратными скобками обозначены формы облаков: Ci - перистые, Cs - перисто-слоистые, Cc - перисто-кучевые, Ac - высококучевые, As - высокослоистые, Sc - слоисто-кучевые, Ns - слоисто-дождевые, Cu - кучевые, Cb - кучево-дождевые. Подробнее классификацию облаков см. в Атласе облаков (PDF).
T - Температура воздуха - температура, измеренная на высоте 2 м над землей.
Td - Температура точки росы - температура, при понижении до которой содержащийся в воздухе водяной пар достигнет насыщения.
f - Относительная влажность воздуха - влажноcть воздуха, измеренная на высоте 2 м над землей.
Te - Эффективная температура - температура, которую ощущает одетый по сезону человек в тени. Характеристика душности погоды. При расчете учитывается влияние влажности воздуха и скорости ветра на теплоощущения человека.
Tes - Эффективная температура на солнце - температура, которую ощущает человек, с поправкой на солнечный нагрев. Характеристика знойности погоды. Зависит от высоты солнца над горизонтом, облачности и скорости ветра. Ночью, в пасмурную погоду, а также при ветре 12 м/с и более поправка равна нулю.
P - Атмосферное давление - приведенное к уровню моря атмосферное давление.
Po - Атмосферное давление - измеренное на уровне метеостанции атмосферное давление.
Tmin - Минимальная температура - минимум температуры воздуха на высоте 2 м над землей.
Tmax - Максимальная температура - максимум температуры воздуха на высоте 2 м над землей.
R - Количество осадков - Количество выпавших осадков за период времени, мм. При наведении курсора мыши на число - период времени, за который выпало указанное количество осадков.
R24 - Количество осадков - Количество выпавших осадков за 24 часа, мм.
S - Снежный покров - Высота снежного покрова, см. При наведении курсора мыши на число - состояние снежного покрова и степень покрытия местности в баллах.